Home > Weather > Rawalpindi > Past weeks

Flag for Pakistan Past Weather in Rawalpindi, Pakistan — Yesterday and Last 2 Weeks

Now
93 °F

Passing clouds.


Feels Like: 107 °F
Forecast: 77 / 91 °F
Wind: 16 mph from Southeast

Location: Islamabad Airport

Current Time: Jul 26, 2016 at 3:28:04 PM

Latest Report: Jul 26, 2016 at 3:00 PM


Visibility: 5 mi

Pressure: 29.65 "Hg (28.04 "Hg at 501m altitude)

Humidity: 59%

Dew Point: 77 °F

Location of RawalpindiLocation

Past Weather in Rawalpindi — Graph

°F

Rawalpindi Temperature Yesterday

Maximum temperature yesterday: 95 °F (at 3:00 PM)
Minimum temperature yesterday: 75 °F (at 8:00 AM)
Average temperature yesterday: 86 °F

High & Low Weather Summary for the Past Weeks

 TemperatureHumidityPressure
High100 °F (Jul 11, 5:00 PM)100% (Jul 15, 4:00 AM)29.77 "Hg (Jul 15, 4:00 AM)
Low72 °F (Jul 16, 4:00 AM)42% (Jul 20, 3:00 PM)29.47 "Hg (Jul 11, 5:00 PM)
Average86 °F71%29.61 "Hg
* Reported Jul 11 2:00 PM — Jul 26 2:00 PM, Rawalpindi, Weather by CustomWeather, © 2016

Note: Actual official high and low records may vary slightly from our data, if they occured in-between our weather recording intervals... More about our weather records

Advertising

Rawalpindi Weather History for the Previous 24 Hours

Scroll right to see more
 ConditionsComfort  
Time TempWeatherWind HumidityBarometerVisibility
2:00 PM
Tue, Jul 26
93 °FPassing clouds.7 mph59%29.68 "Hg5 mi
1:30 PM91 °FScattered clouds.12 mph67%29.71 "Hg5 mi
1:00 PM91 °FScattered clouds.18 mphN/A29.71 "Hg5 mi
12:30 PM90 °FScattered clouds.16 mph63%29.71 "Hg5 mi
12:00 PM90 °FScattered clouds.16 mph63%29.71 "Hg5 mi
11:30 AM93 °FBroken clouds.21 mph49%29.71 "Hg5 mi
11:00 AM93 °FScattered clouds.14 mph49%29.71 "Hg5 mi
10:30 AM88 °FPassing clouds.12 mph59%29.71 "Hg5 mi
10:00 AM88 °FScattered clouds.12 mph59%29.71 "Hg5 mi
9:30 AM86 °FPassing clouds.14 mph66%29.74 "Hg5 mi
9:00 AM86 °FPassing clouds.14 mph66%29.74 "Hg5 mi
8:30 AM82 °FPassing clouds.14 mph74%29.71 "Hg4 mi
8:00 AM82 °FScattered clouds.12 mph74%29.71 "Hg4 mi
7:30 AM82 °FBroken clouds.7 mph74%29.71 "Hg4 mi
7:00 AM82 °FBroken clouds.7 mph74%29.71 "Hg4 mi
6:30 AM82 °FBroken clouds.9 mph74%29.71 "Hg4 mi
6:00 AM82 °FBroken clouds.9 mph74%29.71 "Hg4 mi
5:30 AM84 °FThunderstorms. Broken clouds.18 mph74%29.68 "Hg4 mi
5:00 AM84 °FThunderstorms. Partly cloudy.18 mph74%29.68 "Hg4 mi
4:30 AM84 °FThundershowers. Passing clouds.14 mph74%29.68 "Hg4 mi
4:00 AM84 °FThundershowers. Passing clouds.14 mph74%29.68 "Hg4 mi
3:30 AM84 °FThundershowers. Partly cloudy.14 mph74%29.68 "Hg4 mi
3:00 AM84 °FPartly cloudy.14 mph74%29.68 "Hg4 mi
2:30 AM84 °FPassing clouds.14 mph74%29.68 "Hg4 mi
2:00 AM84 °FPassing clouds.14 mph74%29.68 "Hg4 mi
1:30 AM84 °FPassing clouds.14 mph74%29.65 "Hg4 mi
1:00 AM84 °FPassing clouds.14 mph74%29.65 "Hg4 mi
12:00 AM84 °FPassing clouds.14 mph74%29.65 "Hg4 mi
11:00 PM
Mon, Jul 25
86 °FPassing clouds.12 mph75%29.65 "Hg4 mi
10:30 PM88 °FPassing clouds.14 mph70%29.65 "Hg4 mi
10:00 PM88 °FPassing clouds.14 mph70%29.65 "Hg4 mi
9:30 PM88 °FPassing clouds.14 mph70%29.62 "Hg4 mi
9:00 PM88 °FPassing clouds.14 mph70%29.62 "Hg4 mi
8:00 PM90 °FPassing clouds.14 mph67%29.62 "Hg4 mi
7:30 PM91 °FPassing clouds.12 mph63%29.59 "Hg4 mi
7:00 PM91 °FPassing clouds.12 mph63%29.59 "Hg4 mi
6:30 PM93 °FPassing clouds.12 mph59%29.59 "Hg5 mi
6:00 PM93 °FPassing clouds.12 mph59%29.59 "Hg5 mi
5:30 PM95 °FPassing clouds.9 mph60%29.62 "Hg5 mi
5:00 PM95 °FPassing clouds.9 mph60%29.62 "Hg5 mi
4:30 PM95 °FPassing clouds.9 mph60%29.62 "Hg5 mi
4:00 PM95 °FPassing clouds.9 mph60%29.62 "Hg5 mi
3:30 PM95 °FPassing clouds.12 mph60%29.65 "Hg5 mi
3:00 PM95 °FPassing clouds.12 mph60%29.65 "Hg5 mi
Weather by CustomWeather, © 2016

See weather overviewHow to use our weather pages